Location: Guayaquil
(2.1667°S, 79.9000°W)
Time: 06:34:48
(UTC-05:00)

N. Korean satellite - Visible Passes

Search period start: 05 August 2020 00:00
Search period end: 15 August 2020 00:00
Orbit: 453 x 506 km, 97.2° (Epoch: 04 August)

Date Brightness Start Highest point End Pass type
(mag) Time Alt. Az. Time Alt. Az. Time Alt. Az.
05 Aug 6.5 05:32:37 10° N 05:36:11 89° W 05:39:50 10° S visible
06 Aug 8.4 05:07:11 10° NE 05:10:23 31° ESE 05:13:39 10° SSE visible
07 Aug 9.7 04:43:05 10° ENE 04:44:37 12° ESE 04:46:09 10° SE visible
08 Aug 6.9 05:48:24 10° N 05:51:51 45° W 05:55:22 10° SSW visible
09 Aug 7.1 05:22:28 10° NNE 05:26:01 60° E 05:29:39 10° S visible
10 Aug 9.1 04:57:23 10° NE 05:00:14 22° ESE 05:03:07 10° SSE visible
12 Aug 6.5 05:38:02 10° N 05:41:39 70° W 05:45:20 10° SSW visible
13 Aug 8.0 05:12:24 10° NNE 05:15:49 39° ESE 05:19:18 10° S visible
14 Aug 9.6 04:47:48 10° ENE 04:50:01 16° ESE 04:52:16 10° SE visible
